sat.trackr.live / text

‹ back to catalog

KUIPER-00596

NORAD 69281 · 2026-118Q

PAYLOAD ACTIVE UNKNOWN

§ Identity

Operator
Country
US
Launch date
2026-05-29
Launch site
AFETR
Launch vehicle
Mass (kg)
RCS (m²)

External: N2YO · Heavens-Above · Gunter

§ Orbital elements

Epoch: 2026-09-19T17:00:41.694624Z

Period
97.30 min
Inclination
51.9035°
Eccentricity
0.0000351
Mean motion
14.79935157 rev/d
Perigee alt
629.3 km
Apogee alt
629.8 km
Semi-major
7,007.7 km
B*
3.0077e-4
RAAN
347.6953°
Arg perigee
97.4798°
Mean anomaly
262.6205°
Rev number
1,808

§ Raw data

KUIPER-005961 69281U 26118Q   26262.70881591  .00002073  00000+0  30077-3 0  99922 69281  51.9035 347.6953 0000351  97.4798 262.6205 14.79935157 18082

JSON: /api/v1/satellites/69281 · /tle

For live sub-satellite position, see the globe view (requires WebGL).

§ Visibility from observer

Set your observer location to see the next 7 days of passes ≥ 10°. The values pass through the URL so the page stays shareable.

No JS? Fill the form by hand. The geolocation button needs JavaScript.